Regional Weather Roundup
Issued by NWS

Home | Current Version | Previous Version | Graphics & Text | Print | Product List | Glossary On
Versions: 1 2 3 4 5 6 7 8 9 10 11 12 13 14 15 16 17 18 19 20 21 22 23 24 25 26 27 28 29 30 31 32 33 34 35 36 37 38 39 40 41 42 43 44 45 46 47 48 49 50
000
ASUS43 KIND 261959
RWRIN

WEATHER ROUNDUP FOR INDIANA
NATIONAL WEATHER SERVICE INDIANAPOLIS IN
400 PM EDT WED APR 26 2017

NOTE: "FAIR" INDICATES FEW OR NO CLOUDS BELOW 12,000 FEET WITH NO
SIGNIFICANT WEATHER AND/OR OBSTRUCTIONS TO VISIBILITY.

* - STATION DOES NOT REPORT WEATHER SUCH AS PRECIPITATION OR FOG.

+ - STATION NOT QUALITY CONTROLLED BY THE NATIONAL WEATHER SERVICE.
    USE DATA WITH CAUTION...ESPECIALLY DEWPOINT AND RELATIVE
    HUMIDITY OBSERVATIONS.

INZ001>003-010>013-019-020-262100-
NORTHWEST INDIANA

CITY           SKY/WX    TMP DP  RH WIND       PRES   REMARKS
GARY /AIRPORT/ MOSUNNY   79  50  36 W23G36    29.50S
KNOX *+        MOSUNNY   82  19   9 W22G29    29.49R
MONTICELLO +   MOSUNNY   82  52  35 SW16G30   29.50F

$$

LMZ046-743>745-262100-
SOUTHERN LAKE MICHIGAN

STATION/POSITION TIME  TEMP    WIND        PRES    WAVE
                       AIR SEA DIR/SP/G            HT
                 (UTC) (F)     (DEG/KT/KT) (MB)    (FT)
BURNS HARBOR     1940   74     230/ 16/ 26  999.0R
MICHIGAN CITY    1930   66     240/ 18/ 21   N/A
5NW MICH CITY    1950   58 49                N/A     2

$$

INZ004-005-014>016-021>024-262100-
NORTH CENTRAL INDIANA

CITY           SKY/WX    TMP DP  RH WIND       PRES   REMARKS
GOSHEN         PTSUNNY   81  53  37 SW22G29   29.50S
SOUTH BEND     PTSUNNY   80  54  40 SW22G30   29.49S

$$

INZ006>009-017-018-025>027-262100-
NORTHEAST INDIANA

CITY           SKY/WX    TMP DP  RH WIND       PRES   REMARKS
ANGOLA *+      CLOUDY    81  75  83 S14       29.52F
FORT WAYNE     MOSUNNY   85  58  39 SW24G31   29.52F
KENDALLVILLE + PTSUNNY   81  59  47 SW15G23   29.53F

$$

INZ028-029-035-036-043>045-051>053-262100-
WEST CENTRAL INDIANA

CITY           SKY/WX    TMP DP  RH WIND       PRES   REMARKS
CRAWFORDSVL +    N/A    N/A N/A N/A MISG        N/A
GREENCASTLE +  MOSUNNY   79  55  44 SW7G16    29.56S
LAFAYETTE      MOSUNNY   80  56  43 SW14G25   29.51R
TERRE HAUTE    MOSUNNY   80  56  43 SW14G25   29.54F

$$

INZ030>032-037>040-046>048-054>057-064-065-262100-
CENTRAL INDIANA

CITY           SKY/WX    TMP DP  RH WIND       PRES   REMARKS
COLUMBUS       MOSUNNY   82  55  39 S21       29.56F
INDIANAPOLIS   MOSUNNY   82  59  45 S15G26    29.54F
-EAGLE CREEK   MOSUNNY   83  57  41 S15G24    29.53F
KOKOMO +       MOSUNNY   83  58  42 SW20      29.54F
SHELBYVILLE    MOSUNNY   85  59  41 S25G31    29.55S

$$

INZ033-034-041-042-049-050-058-059-262100-
EAST CENTRAL INDIANA

CITY           SKY/WX    TMP DP  RH WIND       PRES   REMARKS
MUNCIE         MOSUNNY   85  57  38 SW17G30   29.55R
RICHMOND +     SUNNY     81  59  47 S23G31    29.60F

$$

INZ060-061-067>069-081>083-085>088-262100-
SOUTHWEST INDIANA

CITY           SKY/WX    TMP DP  RH WIND       PRES   REMARKS
EVANSVILLE     PTSUNNY   83  63  50 S18G26    29.56F
HUNTINGBURG *+ PTSUNNY   82  64  54 S16G25    29.57F

$$

INZ062-063-066-070>080-084-089>092-262100-
SOUTH CENTRAL AND SOUTHEAST INDIANA

CITY           SKY/WX    TMP DP  RH WIND       PRES   REMARKS
BLOOMINGTON    PTSUNNY   82  58  43 S15       29.56S
MADISON *+     MOSUNNY   81  59  47 S16G24    29.63S
SEYMOUR +      SUNNY     84  63  48 S17G24    29.56F

$$





USA.gov is the U.S. government's official web portal to all federal, state and local government web resources and services.